Flag for China Weather past 2 weeks in Shanghai, Shanghai Municipality, China

Now
48 °F

Partly sunny.


Feels Like: 46 °F
Forecast: 39 / 52 °F
Wind: 6 mph from North

Location: Shanghai Hongqiao Airport

Current Time: Mar 6, 2015 at 3:00:11 PM

Latest Report: Mar 6, 2015 at 2:30 PM


Visibility: N/A

Pressure: 30.18 "Hg

Humidity: 58%

Dew point: 34 °F

Location of ShanghaiLocation

Historic Weather in Shanghai — Graph

°F

Shanghai temperature yesterday

Maximum temperature yesterday: 43 °F (at 8:30 AM)
Minimum temperature yesterday: 39 °F (at 12:00 AM)
Average temperature yesterday: 40 °F

Past Weeks' High & Low Weather Summary

 TemperatureHumidityPressure
High57 °F (Mar 3, 12:30 PM)100% (Feb 21, 2:30 AM)30.39 "Hg (Feb 21, 2:30 AM)
Low37 °F (Feb 23, 4:00 AM)33% (Feb 19, 2:30 PM)29.92 "Hg (Feb 21, 3:00 AM)
Average45 °F77%30.17 "Hg
* Reported Feb 19 2:00 PM — Mar 6 2:00 PM, Shanghai, Weather by CustomWeather, © 2015

Note: Actual official high and low records may vary slightly from our data, if they occured in-between our weather recording intervals... More about our weather records

Advertising

Shanghai weather history for previous 24 hours

 ConditionsComfort  
Time TempWeatherWind HumidityBarometerVisibility
2:00 PM
Fri, Mar 6
46 °FPartly sunny.6 mph57%30.18 "HgN/A
1:30 PM48 °FPartly sunny.3 mph58%30.21 "HgN/A
1:00 PM48 °FPartly sunny.3 mph54%30.21 "HgN/A
12:30 PM48 °FScattered clouds.1 mph58%30.21 "HgN/A
12:00 PM46 °FScattered clouds.6 mph57%30.24 "HgN/A
11:30 AM46 °FScattered clouds.3 mph57%30.27 "HgN/A
11:00 AM46 °FScattered clouds.6 mph62%30.27 "HgN/A
10:30 AM46 °FScattered clouds.6 mph62%30.27 "HgN/A
10:00 AM45 °FPassing clouds.6 mph66%30.27 "HgN/A
9:30 AM45 °FSunny.10 mph66%30.27 "Hg10 mi
9:00 AM43 °FPassing clouds.6 mph71%30.27 "HgN/A
8:30 AM43 °FPassing clouds.6 mph76%30.30 "HgN/A
8:00 AM43 °FSunny.6 mph76%30.27 "Hg10 mi
7:30 AM41 °FSunny.6 mph81%30.27 "Hg10 mi
7:00 AM39 °FSunny.6 mph87%30.27 "Hg10 mi
6:30 AM39 °FSunny.3 mph87%30.27 "Hg10 mi
6:00 AM39 °FClear.3 mph87%30.27 "Hg10 mi
5:30 AM39 °FClear.6 mph87%30.24 "Hg10 mi
4:30 AM39 °FClear.3 mph87%30.24 "Hg10 mi
4:00 AM39 °FClear.6 mph87%30.24 "Hg10 mi
3:30 AM39 °FClear.8 mph87%30.24 "Hg10 mi
3:00 AM39 °FPassing clouds.8 mph87%30.27 "HgN/A
2:30 AM39 °FPassing clouds.8 mph87%30.27 "HgN/A
2:00 AM39 °FPassing clouds.6 mph87%30.27 "HgN/A
1:30 AM39 °FPassing clouds.6 mph81%30.27 "HgN/A
1:00 AM39 °FPassing clouds.6 mph81%30.27 "HgN/A
12:30 AM39 °FPassing clouds.6 mph87%30.27 "HgN/A
12:00 AM39 °FPassing clouds.6 mph81%30.27 "HgN/A
11:30 PM
Thu, Mar 5
39 °FPassing clouds.6 mph81%30.27 "HgN/A
11:00 PM39 °FPassing clouds.6 mph81%30.27 "HgN/A
10:30 PM39 °FPassing clouds.8 mph81%30.30 "HgN/A
10:00 PM39 °FPassing clouds.6 mph81%30.30 "HgN/A
9:30 PM39 °FPassing clouds.6 mph81%30.30 "HgN/A
9:00 PM39 °FPassing clouds.8 mph81%30.30 "HgN/A
8:30 PM39 °FPassing clouds.8 mph81%30.27 "HgN/A
8:00 PM39 °FPassing clouds.10 mph81%30.27 "HgN/A
7:30 PM39 °FPassing clouds.8 mph75%30.27 "HgN/A
7:00 PM39 °FPassing clouds.8 mph75%30.27 "HgN/A
6:30 PM39 °FPassing clouds.10 mph75%30.27 "HgN/A
6:00 PM39 °FPassing clouds.10 mph75%30.27 "HgN/A
5:30 PM39 °FLight rain. Partly sunny.10 mph81%30.27 "HgN/A
5:00 PM39 °FLight rain. Partly sunny.10 mph81%30.27 "HgN/A
4:30 PM39 °FLight rain. Partly sunny.8 mph81%30.27 "HgN/A
4:00 PM39 °FLight rain. Partly sunny.8 mph81%30.27 "HgN/A
3:30 PM41 °FLight rain. Scattered clouds.8 mph81%30.27 "HgN/A
3:00 PM39 °FLight rain. Scattered clouds.8 mph87%30.27 "HgN/A
Weather by CustomWeather, © 2015

See weather overviewHow to use our weather pages